TimePDT,TemperatureF,Dew PointF,Humidity,Sea Level PressureIn,VisibilityMPH,Wind Direction,Wind SpeedMPH,Gust SpeedMPH,PrecipitationIn,Events,Conditions,WindDirDegrees,DateUTC
12:54 AM,50.0,48.0,93,30.16,10.0,South,5.8,-,N/A,,Overcast,180,2012-10-27 07:54:00
1:31 AM,50.0,48.2,94,30.17,9.0,SW,4.6,-,N/A,,Overcast,220,2012-10-27 08:31:00
1:54 AM,48.9,48.0,97,30.16,10.0,South,4.6,-,N/A,,Overcast,170,2012-10-27 08:54:00
2:54 AM,48.9,48.0,97,30.16,9.0,SSW,4.6,-,N/A,,Overcast,200,2012-10-27 09:54:00
3:04 AM,48.2,48.2,100,30.15,10.0,South,5.8,-,N/A,,Overcast,190,2012-10-27 10:04:00
3:31 AM,51.8,48.2,88,30.15,10.0,SSE,6.9,-,N/A,,Overcast,160,2012-10-27 10:31:00
3:54 AM,52.0,48.0,86,30.15,10.0,South,6.9,-,N/A,,Overcast,170,2012-10-27 10:54:00
4:54 AM,52.0,48.0,86,30.14,10.0,SSE,8.1,-,N/A,,Overcast,150,2012-10-27 11:54:00
5:41 AM,51.8,48.2,88,30.13,10.0,SSE,9.2,-,N/A,,Overcast,150,2012-10-27 12:41:00
5:54 AM,51.1,48.0,89,30.13,10.0,SSE,8.1,-,0.00,Rain,Light Rain,150,2012-10-27 12:54:00
6:05 AM,51.8,48.2,88,30.12,10.0,SSE,9.2,-,N/A,Rain,Light Rain,150,2012-10-27 13:05:00
6:54 AM,51.8,48.2,88,30.10,10.0,SSE,10.4,-,N/A,,Overcast,150,2012-10-27 13:54:00
7:51 AM,53.6,48.2,82,30.10,10.0,SSE,9.2,-,N/A,,Overcast,160,2012-10-27 14:51:00
7:54 AM,53.1,48.0,83,30.10,10.0,SSE,8.1,-,N/A,,Overcast,160,2012-10-27 14:54:00
8:54 AM,53.1,48.9,86,30.10,4.0,South,15.0,-,0.03,Rain,Rain,180,2012-10-27 15:54:00
9:38 AM,53.6,51.8,94,30.11,2.5,SSW,9.2,-,0.03,Rain,Rain,200,2012-10-27 16:38:00
9:45 AM,51.8,51.8,100,30.10,1.5,South,11.5,-,0.04,Rain,Rain,180,2012-10-27 16:45:00
9:54 AM,52.0,51.1,97,30.10,1.5,South,9.2,-,0.07,Rain,Light Rain,170,2012-10-27 16:54:00
9:59 AM,53.6,51.8,94,30.10,2.5,South,9.2,-,0.00,Rain,Light Rain,180,2012-10-27 16:59:00
10:12 AM,53.6,51.8,94,30.10,3.0,SSE,8.1,-,0.01,Rain,Light Rain,160,2012-10-27 17:12:00
10:40 AM,51.8,51.8,100,30.10,4.0,SSE,8.1,-,0.08,Rain,Light Rain,150,2012-10-27 17:40:00
10:54 AM,52.0,51.1,97,30.10,5.0,SSE,10.4,-,0.08,Rain,Light Rain,160,2012-10-27 17:54:00
11:54 AM,53.1,51.1,93,30.10,7.0,SSE,10.4,-,0.00,,Overcast,150,2012-10-27 18:54:00
12:01 PM,53.6,51.8,94,30.09,7.0,SSE,11.5,-,N/A,,Overcast,150,2012-10-27 19:01:00
12:54 PM,54.0,52.0,93,30.08,10.0,SE,12.7,-,0.00,,Overcast,140,2012-10-27 19:54:00
1:54 PM,55.9,55.0,97,30.06,8.0,South,9.2,-,0.00,Rain,Light Rain,170,2012-10-27 20:54:00
2:29 PM,59.0,55.4,88,30.04,10.0,South,13.8,-,0.00,,Overcast,170,2012-10-27 21:29:00
2:54 PM,59.0,57.0,93,30.04,10.0,South,11.5,-,0.00,,Overcast,170,2012-10-27 21:54:00
3:54 PM,61.0,57.9,90,30.02,10.0,South,13.8,-,0.00,,Overcast,170,2012-10-27 22:54:00
4:54 PM,60.1,57.0,90,30.02,10.0,South,11.5,-,N/A,,Overcast,170,2012-10-27 23:54:00
5:43 PM,60.8,57.2,88,30.02,10.0,SSE,12.7,-,N/A,,Overcast,160,2012-10-28 00:43:00
5:54 PM,60.1,57.0,90,30.02,10.0,SSE,11.5,-,N/A,,Overcast,160,2012-10-28 00:54:00
6:34 PM,60.8,57.2,88,30.01,10.0,SSE,10.4,-,N/A,,Overcast,160,2012-10-28 01:34:00
6:54 PM,60.1,57.0,90,30.02,10.0,SSE,9.2,-,N/A,,Overcast,160,2012-10-28 01:54:00
7:54 PM,60.1,57.0,90,30.03,10.0,South,11.5,-,N/A,,Overcast,180,2012-10-28 02:54:00
8:54 PM,61.0,57.0,87,30.01,10.0,South,12.7,-,N/A,,Overcast,180,2012-10-28 03:54:00
9:45 PM,60.8,57.2,88,30.02,9.0,South,12.7,-,0.00,Rain,Light Rain,190,2012-10-28 04:45:00
9:54 PM,60.1,57.0,90,30.03,8.0,SSW,10.4,-,0.03,Rain,Rain,210,2012-10-28 04:54:00
10:54 PM,59.0,57.9,96,30.03,6.0,South,10.4,-,0.09,Rain,Light Rain,180,2012-10-28 05:54:00
11:54 PM,59.0,57.9,96,30.03,5.0,South,10.4,-,0.05,Rain,Rain,180,2012-10-28 06:54:00